Location: Chequamegon National Forest
(46.1070°N, 90.8420°W)
Time: 20:38:50
(UTC-05:00)

ISS - All Passes

Search period start: 31 May 2016 00:00
Search period end: 10 June 2016 00:00
Orbit: 402 x 404 km, 51.6° (Epoch: 31 May)

Date Brightness Start Highest point End Pass type
(mag) Time Alt. Az. Time Alt. Az. Time Alt. Az.
31 May - 01:00:15 10° WNW 01:03:20 37° NNE 01:06:24 10° E visible
31 May - 02:36:41 10° WNW 02:39:55 59° SSW 02:43:07 10° SE visible
31 May - 19:20:37 10° SE 19:20:57 10° SE 19:21:18 10° SE daylight
31 May - 20:53:36 10° SW 20:56:50 65° SSE 21:00:05 10° ENE daylight
31 May - 22:30:23 10° W 22:33:26 36° NNW 22:36:30 10° ENE visible
01 Jun - 00:07:26 10° WNW 00:10:25 31° N 00:13:23 10° ENE visible
01 Jun - 01:43:53 10° WNW 01:47:10 83° NNE 01:50:25 10° ESE visible
01 Jun - 03:21:04 10° W 03:23:14 17° SW 03:25:23 10° S visible
01 Jun - 20:01:06 10° SSW 20:04:08 36° SE 20:07:11 10° ENE daylight
01 Jun - 21:37:22 10° W 21:40:32 46° NNW 21:43:43 10° ENE visible
01 Jun - 23:14:32 10° WNW 23:17:28 29° N 23:20:23 10° ENE visible
02 Jun - 00:51:07 10° WNW 00:54:20 54° NNE 00:57:33 10° E visible
02 Jun - 02:27:47 10° W 02:30:39 28° SW 02:33:30 10° SSE visible
02 Jun - 19:08:58 10° S 19:11:31 21° SE 19:14:04 10° E daylight
02 Jun - 20:44:26 10° WSW 20:47:41 68° NNW 20:50:58 10° ENE daylight
02 Jun - 22:21:33 10° WNW 22:24:30 30° N 22:27:27 10° ENE visible
02 Jun - 23:58:20 10° WNW 00:01:27 40° NNE 00:04:34 10° E visible
03 Jun - 01:34:48 10° WNW 01:37:59 50° SW 01:41:09 10° SE visible
03 Jun - 18:17:34 10° SSE 18:18:57 12° SE 18:20:20 10° ESE daylight
03 Jun - 19:51:38 10° SW 19:54:53 76° SSE 19:58:10 10° ENE daylight
03 Jun - 21:28:31 10° WNW 21:31:33 34° N 21:34:35 10° ENE visible
03 Jun - 23:05:31 10° WNW 23:08:32 32° N 23:11:32 10° ENE visible
04 Jun - 00:41:57 10° WNW 00:45:14 86° SSW 00:48:29 10° ESE visible
04 Jun - 02:19:26 10° W 02:21:14 14° SW 02:23:02 10° SSW visible
04 Jun - 18:59:02 10° SW 19:02:09 43° SE 19:05:17 10° ENE daylight
04 Jun - 20:35:29 10° W 20:38:38 42° NNW 20:41:47 10° ENE daylight
04 Jun - 22:12:38 10° WNW 22:15:34 30° N 22:18:30 10° ENE visible
04 Jun - 23:49:10 10° WNW 23:52:25 61° NNE 23:55:39 10° ESE visible
05 Jun - 01:25:56 10° W 01:28:39 24° SW 01:31:21 10° SSE visible
05 Jun - 18:06:45 10° SSW 18:09:29 25° SE 18:12:15 10° E daylight
05 Jun - 19:42:30 10° WSW 19:45:44 60° NNW 19:48:59 10° ENE daylight
05 Jun - 21:19:39 10° WNW 21:22:35 29° N 21:25:32 10° ENE daylight
05 Jun - 22:56:23 10° WNW 22:59:32 43° NNE 23:02:40 10° E visible
06 Jun - 00:32:52 10° WNW 00:35:59 42° SW 00:39:05 10° SE visible
06 Jun - 17:15:01 10° S 17:16:54 14° SE 17:18:46 10° E daylight
06 Jun - 18:49:39 10° WSW 18:52:54 87° SSE 18:56:11 10° ENE daylight
06 Jun - 20:26:37 10° WNW 20:29:37 32° N 20:32:37 10° ENE daylight
06 Jun - 22:03:33 10° WNW 22:06:35 34° N 22:09:37 10° E visible
06 Jun - 23:39:58 10° WNW 23:43:15 74° SSW 23:46:30 10° SE visible
07 Jun - 01:17:54 10° WSW 01:19:11 12° SW 01:20:27 10° SSW visible
07 Jun - 17:56:58 10° SW 18:00:08 51° SE 18:03:20 10° ENE daylight
07 Jun - 19:33:33 10° W 19:36:40 39° NNW 19:39:46 10° ENE daylight
07 Jun - 21:10:40 10° WNW 21:13:37 30° N 21:16:34 10° ENE daylight
07 Jun - 22:47:09 10° WNW 22:50:26 69° NNE 22:53:40 10° ESE visible
08 Jun - 00:24:04 10° W 00:26:36 21° SW 00:29:07 10° S visible
08 Jun - 17:04:32 10° SSW 17:07:26 29° SE 17:10:19 10° ENE daylight
08 Jun - 18:40:32 10° W 18:43:44 53° NNW 18:46:58 10° ENE daylight
08 Jun - 20:17:41 10° WNW 20:20:38 29° N 20:23:33 10° ENE daylight
08 Jun - 21:54:21 10° WNW 21:57:33 47° NNE 22:00:43 10° E visible
08 Jun - 23:30:54 10° WNW 23:33:57 36° SW 23:36:57 10° SSE visible
09 Jun - 16:12:35 10° S 16:14:48 17° SE 16:17:00 10° E daylight
09 Jun - 17:47:36 10° WSW 17:50:52 82° NNW 17:54:09 10° ENE daylight
09 Jun - 19:24:39 10° WNW 19:27:38 31° N 19:30:37 10° ENE daylight
09 Jun - 21:01:32 10° WNW 21:04:36 36° NNE 21:07:40 10° E daylight
09 Jun - 22:37:58 10° WNW 22:41:12 63° SSW 22:44:25 10° SE visible
